DW5890 Weather Reports


time (UTC)temp
C
wind
direction
speed
KPH
gust
KPH
rain 1hr
cm
rain 24hr
cm
rain mn
cm
humidity
%
barometer
mb
20260504034523 16 360 24.1 37.0 0.00 0.00 0.00 40 1005.5
20260504034026 16 360 24.1 41.8 0.00 0.00 0.00 39 1005.3
20260504033522 16 360 25.7 38.6 0.00 0.00 0.00 39 1005.1
20260504033021 16 360 27.4 51.5 0.00 0.00 0.00 38 1005.0
20260504032522 17 360 32.2 51.5 0.00 0.00 0.00 37 1004.8
20260504032022 17 360 25.7 40.2 0.00 0.00 0.00 37 1004.5
20260504031522 16 275 16.1 20.9 0.00 0.00 0.00 38 1004.1
20260504031022 17 360 16.1 22.5 0.00 0.00 0.00 38 1004.0
20260504030020 17 281 16.1 24.1 0.00 0.00 0.00 37 1004.0
20260504025521 17 360 17.7 25.7 0.00 0.00 0.00 37 1004.0
20260504025021 17 360 19.3 27.4 0.00 0.00 0.00 37 1003.9
20260504024520 17 360 19.3 27.4 0.00 0.00 0.00 37 1004.0
20260504024019 17 360 19.3 25.7 0.00 0.00 0.00 37 1004.0
20260504023519 17 360 16.1 24.1 0.00 0.00 0.00 37 1004.0
20260504023019 17 360 16.1 24.1 0.00 0.00 0.00 37 1003.8
20260504022523 18 360 17.7 24.1 0.00 0.00 0.00 36 1003.8
20260504022019 18 273 17.7 25.7 0.00 0.00 0.00 36 1003.9
20260504021519 18 360 19.3 27.4 0.00 0.00 0.00 35 1003.7
20260504021018 18 274 19.3 27.4 0.00 0.00 0.00 35 1003.6
20260504020619 19 281 17.7 30.6 0.00 0.00 0.00 34 1003.7
20260504020019 20 360 22.5 30.6 0.00 0.00 0.00 34 1003.7
20260504015518 20 360 20.9 35.4 0.00 0.00 0.00 33 1003.7
20260504015030 20 360 24.1 35.4 0.00 0.00 0.00 32 1003.7
20260504014537 20 360 25.7 43.5 0.00 0.00 0.00 32 1003.7
20260504014021 21 360 29.0 43.5 0.00 0.00 0.00 31 1003.7
20260504013518 21 271 32.2 46.7 0.00 0.00 0.00 30 1003.8
20260504013018 21 360 37.0 46.7 0.00 0.00 0.00 29 1003.7
20260504012520 21 269 35.4 45.1 0.00 0.00 0.00 28 1003.7
20260504012017 22 279 35.4 46.7 0.00 0.00 0.00 27 1003.7
20260504011517 22 281 33.8 46.7 0.00 0.00 0.00 26 1003.7
20260504011014 22 264 29.0 41.8 0.00 0.00 0.00 24 1003.9
20260504010015 22 245 29.0 43.5 0.00 0.00 0.00 25 1003.9
20260504005516 22 252 32.2 48.3 0.00 0.00 0.00 25 1004.0
20260504005015 22 248 33.8 53.1 0.00 0.00 0.00 24 1004.0
20260504004514 22 244 37.0 53.1 0.00 0.00 0.00 24 1004.0
20260504004014 22 247 33.8 46.7 0.00 0.00 0.00 24 1004.1
20260504003514 22 269 32.2 48.3 0.00 0.00 0.00 23 1004.2
20260504003013 22 247 38.6 53.1 0.00 0.00 0.00 23 1004.0
20260504002614 23 265 35.4 53.1 0.00 0.00 0.00 21 1004.2
20260504002012 23 253 37.0 48.3 0.00 0.00 0.00 21 1004.2
20260504001512 23 254 32.2 54.7 0.00 0.00 0.00 23 1004.2
20260504001012 23 247 40.2 54.7 0.00 0.00 0.00 22 1004.3
20260504000035 23 360 35.4 61.2 0.00 0.00 0.00 22 1004.4
20260503235516 23 360 40.2 53.1 0.00 0.00 0.00 22 1004.3
20260503235016 23 360 35.4 45.1 0.00 0.00 0.00 25 1004.4
20260503234515 23 263 32.2 45.1 0.00 0.00 0.00 25 1004.5
20260503234015 23 257 32.2 40.2 0.00 0.00 0.00 25 1004.7
20260503233514 23 240 30.6 43.5 0.00 0.00 0.00 25 1004.8
20260503233019 23 248 29.0 51.5 0.00 0.00 0.00 25 1004.8
20260503232512 23 260 38.6 51.5 0.00 0.00 0.00 24 1004.8
20260503232010 23 360 33.8 48.3 0.00 0.00 0.00 25 1005.0
20260503231509 23 256 35.4 48.3 0.00 0.00 0.00 26 1005.0
20260503231008 23 238 35.4 45.1 0.00 0.00 0.00 25 1005.1
20260503230100 23 237 30.6 48.3 0.00 0.00 0.00 26 1005.1
20260503225603 23 254 33.8 48.3 0.00 0.00 0.00 25 1005.2
20260503225057 23 248 32.2 49.9 0.00 0.00 0.00 25 1005.5
20260503224556 23 360 37.0 56.3 0.00 0.00 0.00 26 1005.6
20260503224058 23 242 38.6 56.3 0.00 0.00 0.00 26 1005.7
20260503223556 23 239 40.2 51.5 0.00 0.00 0.00 25 1005.7
20260503223055 23 360 33.8 46.7 0.00 0.00 0.00 25 1005.8
20260503222553 23 248 30.6 41.8 0.00 0.00 0.00 25 1005.9
20260503222054 23 227 30.6 40.2 0.00 0.00 0.00 24 1006.2
20260503221559 23 243 27.4 38.6 0.00 0.00 0.00 25 1006.1
20260503221051 23 360 25.7 51.5 0.00 0.00 0.00 26 1006.2
20260503220651 22 251 29.0 45.1 0.00 0.00 0.00 24 1006.4
20260503215549 23 250 35.4 46.7 0.00 0.00 0.00 23 1006.5
20260503215049 22 248 27.4 41.8 0.00 0.00 0.00 22 1006.6
20260503214551 23 242 25.7 41.8 0.00 0.00 0.00 22 1006.7
20260503214051 23 360 35.4 41.8 0.00 0.00 0.00 23 1006.9
20260503213550 22 246 25.7 41.8 0.00 0.00 0.00 23 1006.9
20260503213049 23 236 33.8 41.8 0.00 0.00 0.00 22 1007.1
20260503212546 22 248 29.0 41.8 0.00 0.00 0.00 22 1007.1
20260503212044 22 246 29.0 41.8 0.00 0.00 0.00 21 1007.2
20260503211545 22 257 27.4 49.9 0.00 0.00 0.00 27 1007.5
20260503211043 22 253 30.6 49.9 0.00 0.00 0.00 24 1007.5
20260503210542 23 225 33.8 43.5 0.00 0.00 0.00 26 1007.6
20260503210053 23 231 32.2 48.3 0.00 0.00 0.00 26 1007.6
20260503205542 22 251 29.0 51.5 0.00 0.00 0.00 27 1007.6
20260503205041 22 256 30.6 51.5 0.00 0.00 0.00 26 1007.7
20260503204557 22 248 33.8 51.5 0.00 0.00 0.00 26 1007.9
20260503204040 22 238 33.8 48.3 0.00 0.00 0.00 29 1007.9
20260503203541 22 255 27.4 46.7 0.00 0.00 0.00 26 1008.0
20260503203040 22 241 37.0 46.7 0.00 0.00 0.00 28 1008.0
20260503202539 22 360 27.4 43.5 0.00 0.00 0.00 31 1008.1
20260503202038 22 246 35.4 43.5 0.00 0.00 0.00 31 1008.1
20260503201539 22 241 29.0 43.5 0.00 0.00 0.00 28 1008.1
20260503201036 22 360 25.7 43.5 0.00 0.00 0.00 28 1008.4
20260503200636 22 253 33.8 49.9 0.00 0.00 0.00 25 1008.7
20260503200043 22 360 27.4 46.7 0.00 0.00 0.00 27 1008.7
20260503195535 22 240 30.6 45.1 0.00 0.00 0.00 27 1008.8
20260503195033 22 257 32.2 43.5 0.00 0.00 0.00 27 1008.8
20260503194534 22 360 25.7 45.1 0.00 0.00 0.00 29 1008.9
20260503194031 22 240 32.2 45.1 0.00 0.00 0.00 30 1008.9
20260503193531 22 248 29.0 41.8 0.00 0.00 0.00 31 1009.0
20260503193032 22 247 29.0 45.1 0.00 0.00 0.00 32 1009.2
20260503192528 22 243 24.1 43.5 0.00 0.00 0.00 35 1009.1
20260503192028 22 229 30.6 38.6 0.00 0.00 0.00 32 1009.4
20260503191529 22 241 22.5 51.5 0.00 0.00 0.00 35 1009.4
20260503191027 21 360 29.0 51.5 0.00 0.00 0.00 35 1009.7
20260503190625 22 360 30.6 43.5 0.00 0.00 0.00 35 1009.8
20260503190025 22 360 30.6 45.1 0.00 0.00 0.00 35 1009.9
20260503185523 21 219 29.0 49.9 0.00 0.00 0.00 35 1010.0
20260503185025 21 238 27.4 49.9 0.00 0.00 0.00 36 1010.1
20260503184527 21 360 32.2 46.7 0.00 0.00 0.00 35 1010.2
20260503184021 21 240 25.7 45.1 0.00 0.00 0.00 34 1010.4
20260503183520 21 360 35.4 45.1 0.00 0.00 0.00 34 1010.5
20260503183023 21 360 25.7 49.9 0.00 0.00 0.00 34 1010.5
20260503182517 21 217 33.8 49.9 0.00 0.00 0.00 35 1010.8
20260503182017 21 360 29.0 72.4 0.00 0.00 0.00 35 1010.8
20260503181517 21 240 29.0 72.4 0.00 0.00 0.00 33 1010.8
20260503181017 21 227 25.7 45.1 0.00 0.00 0.00 36 1010.9
20260503180615 21 360 25.7 43.5 0.00 0.00 0.00 35 1011.1
20260503180015 21 360 25.7 43.5 0.00 0.00 0.00 35 1011.1
20260503175515 21 360 32.2 43.5 0.00 0.00 0.00 35 1011.3
20260503175013 20 227 27.4 41.8 0.00 0.00 0.00 36 1011.3
20260503174512 20 360 32.2 46.7 0.00 0.00 0.00 34 1011.6
20260503174015 20 360 29.0 46.7 0.00 0.00 0.00 35 1011.6
20260503173511 20 360 25.7 37.0 0.00 0.00 0.00 36 1011.6
20260503173010 20 360 27.4 40.2 0.00 0.00 0.00 36 1011.6
20260503172509 20 225 25.7 43.5 0.00 0.00 0.00 36 1011.8
20260503172010 20 258 27.4 43.5 0.00 0.00 0.00 37 1011.9
20260503171506 20 241 25.7 38.6 0.00 0.00 0.00 36 1012.1
20260503171007 20 360 22.5 38.6 0.00 0.00 0.00 37 1012.2
20260503170607 20 232 29.0 38.6 0.00 0.00 0.00 36 1012.4
20260503150644 16 360 27.4 37.0 0.00 0.00 0.00 41 1014.1
20260503131021 8 360 19.3 25.7 0.00 0.00 0.00 58 1014.8
20260503130520 7 360 3.2 9.7 0.00 0.00 0.00 62 1014.8
20260503110505 3 360 3.2 6.4 0.00 0.00 0.00 69 1015.5
20260503081557 4 360 0.0 3.2 0.00 0.00 0.00 66 1016.2
20260503081051 4 360 0.0 3.2 0.00 0.00 0.00 66 1016.2
20260503080550 4 360 0.0 3.2 0.00 0.00 0.00 65 1016.3
20260503072545 4 360 0.0 0.0 0.00 0.00 0.00 66 1016.4
20260503072045 4 360 0.0 0.0 0.00 0.00 0.00 66 1016.5
20260503071545 4 360 0.0 0.0 0.00 0.00 0.00 66 1016.4
20260503071042 4 360 0.0 0.0 0.00 0.00 0.00 66 1016.4
20260503070541 4 360 0.0 0.0 0.00 0.00 0.00 65 1016.5
20260503055034 6 360 0.0 0.0 0.00 0.00 0.00 63 1016.5
20260503054538 6 360 0.0 0.0 0.00 0.00 0.00 64 1016.5
20260503054034 5 360 0.0 1.6 0.00 0.00 0.00 64 1016.3
20260503053535 5 360 0.0 3.2 0.00 0.00 0.00 64 1016.4
20260503053033 6 360 0.0 3.2 0.00 0.00 0.00 63 1016.3
20260503052534 6 360 0.0 0.0 0.00 0.00 0.00 63 1016.4
20260503052032 6 360 0.0 0.0 0.00 0.00 0.00 63 1016.3
20260503051532 6 360 0.0 0.0 0.00 0.00 0.00 63 1016.4
20260503051032 6 360 0.0 0.0 0.00 0.00 0.00 62 1016.4
20260503050530 6 360 0.0 3.2 0.00 0.00 0.00 62 1016.4
20260503045529 6 360 0.0 6.4 0.00 0.00 0.00 61 1016.5
20260503045032 6 360 1.6 6.4 0.00 0.00 0.00 61 1016.4
20260503044538 7 360 1.6 4.8 0.00 0.00 0.00 60 1016.5
20260503044029 7 360 0.0 4.8 0.00 0.00 0.00 57 1016.5
20260503043527 8 360 1.6 8.0 0.00 0.00 0.00 56 1016.6
20260503043027 8 360 4.8 8.0 0.00 0.00 0.00 55 1016.6
20260503042527 8 360 6.4 8.0 0.00 0.00 0.00 55 1016.5
20260503042027 8 76 6.4 8.0 0.00 0.00 0.00 55 1016.6
20260503041527 8 360 4.8 8.0 0.00 0.00 0.00 56 1016.6
20260503041025 7 360 6.4 8.0 0.00 0.00 0.00 57 1016.6
20260503040526 7 360 6.4 8.0 0.00 0.00 0.00 58 1016.6
20260503035528 7 360 3.2 6.4 0.00 0.00 0.00 56 1016.6
20260503035031 7 360 4.8 6.4 0.00 0.00 0.00 56 1016.7